Location: Saratoga Springs
(43.0831°N, 73.7850°W)
Time: 11:19:01
(UTC-04:00)

Vanguard 1 Rocket - Pass Details

Date: 25 April 2024
Orbit: 651 x 4220 km, 34.3° (Epoch: 19 May)

Event Time Altitude Azimuth Distance (km) Brightness Sun altitude
Rises 20:42:52 0° 258° (WSW) 3,102 11.0 -9.6°
Reaches altitude 10° 20:45:02 10° 249° (WSW) 2,330 10.1 -9.9°
Maximum altitude 20:49:51 36° 182° (S) 1,546 8.3 -10.7°
Enters shadow 20:56:06 14° 123° (ESE) 3,239 9.5 -11.7°
